sat.trackr.live / text

‹ back to catalog

STARLINK-3278

NORAD 50830 · 2022-001AD

PAYLOAD ACTIVE UNKNOWN

§ Identity

Operator
Country
US
Launch date
2022-01-06
Launch site
AFETR
Launch vehicle
Mass (kg)
RCS (m²)

Purposes: comms

External: N2YO · Heavens-Above · Gunter

§ Orbital elements

Epoch: 2026-05-25T03:46:53.679072Z

Period
95.44 min
Inclination
53.2126°
Eccentricity
0.0001278
Mean motion
15.08835930 rev/d
Perigee alt
538.9 km
Apogee alt
540.6 km
Semi-major
6,917.9 km
B*
-1.1192e-4
RAAN
195.8437°
Arg perigee
87.2044°
Mean anomaly
272.9095°
Rev number
24,181

§ Raw data

STARLINK-32781 50830U 22001AD  26145.15756573 -.00002068  00000+0 -11192-3 0  99922 50830  53.2126 195.8437 0001278  87.2044 272.9095 15.08835930241819

JSON: /api/v1/satellites/50830 · /tle

For live sub-satellite position, see the globe view (requires WebGL).

§ Visibility from observer

Set your observer location to see the next 7 days of passes ≥ 10°. The values pass through the URL so the page stays shareable.

No JS? Fill the form by hand. The geolocation button needs JavaScript.